Home > Weather > Yokosuka > Past weeks

Flag for Japan Weather for the Past 2 Weeks in Yokosuka, Japan

Now
66 °F

Partly sunny.


Feels Like: 66 °F
Forecast: 61 / 72 °F
Wind: 10 mph from Southeast

Location: Tokyo International Airport

Current Time: May 2, 2016 at 6:08:35 PM

Latest Report: May 2, 2016 at 5:30 PM


Visibility: N/A

Pressure: 30.12 "Hg

Humidity: 83%

Dew Point: 61 °F

Location of YokosukaLocation

Historic Weather in Yokosuka — Graph

°F

Yokosuka Temperature Yesterday

Maximum temperature yesterday: 75 °F (at 2:30 PM)
Minimum temperature yesterday: 55 °F (at 5:00 AM)
Average temperature yesterday: 63 °F

High & Low Weather Summary for the Past Weeks

 TemperatureHumidityPressure
High75 °F (Apr 18, 11:00 AM)100% (Apr 21, 11:50 PM)30.30 "Hg (Apr 21, 11:50 PM)
Low52 °F (Apr 20, 4:30 AM)30% (Apr 29, 3:04 PM)29.33 "Hg (Apr 28, 5:00 PM)
Average62 °F73%29.87 "Hg
* Reported Apr 17 5:00 PM — May 2 5:00 PM, Yokosuka, Weather by CustomWeather, © 2016

Note: Actual official high and low records may vary slightly from our data, if they occured in-between our weather recording intervals... More about our weather records

Advertising

Yokosuka Weather History for the Previous 24 Hours

Scroll right to see more
 ConditionsComfort  
Time TempWeatherWind HumidityBarometerVisibility
5:00 PM
Mon, May 2
66 °FPartly sunny.9 mph83%30.12 "HgN/A
4:00 PM68 °FPartly sunny.6 mph73%30.09 "HgN/A
3:30 PM68 °FPartly sunny.5 mph73%30.12 "HgN/A
2:00 PM66 °FPartly sunny.8 mph73%30.12 "HgN/A
1:30 PM66 °FBroken clouds.7 mph78%30.12 "HgN/A
1:00 PM66 °FBroken clouds.7 mph78%30.12 "HgN/A
12:30 PM64 °FBroken clouds.8 mph78%30.12 "HgN/A
11:30 AM63 °FBroken clouds.10 mph77%30.15 "HgN/A
11:00 AM63 °FBroken clouds.12 mph77%30.15 "HgN/A
10:30 AM63 °FBroken clouds.7 mph77%30.15 "HgN/A
10:00 AM61 °FPartly sunny.7 mph77%30.15 "HgN/A
9:30 AM61 °FPartly sunny.13 mph77%30.15 "HgN/A
9:00 AM59 °FPartly sunny.10 mph82%30.15 "Hg6 mi
8:30 AM61 °FBroken clouds.12 mph77%30.15 "Hg6 mi
8:00 AM61 °FPartly sunny.8 mph77%30.15 "Hg6 mi
7:30 AM59 °FPartly sunny.8 mph82%30.15 "Hg5 mi
7:00 AM59 °FBroken clouds.8 mph82%30.12 "Hg4 mi
6:30 AM59 °FPartly sunny.10 mph82%30.12 "Hg4 mi
6:00 AM59 °FPartly sunny.10 mph82%30.12 "Hg4 mi
5:30 AM57 °FFog.9 mph88%30.09 "Hg4 mi
5:00 AM57 °FPartly sunny.9 mph88%30.09 "Hg4 mi
4:30 AM57 °FPassing clouds.9 mph88%30.09 "Hg5 mi
4:00 AM57 °FPassing clouds.8 mph88%30.07 "HgN/A
3:30 AM57 °FPassing clouds.10 mph94%30.07 "HgN/A
3:00 AM59 °FPassing clouds.10 mph88%30.07 "HgN/A
2:30 AM57 °FPartly cloudy.10 mph94%30.04 "HgN/A
2:00 AM59 °FPassing clouds.16 mph88%30.04 "HgN/A
1:30 AM61 °FClear.10 mph83%30.04 "Hg10 mi
1:00 AM61 °FClear.12 mph83%30.01 "Hg10 mi
12:30 AM61 °FClear.12 mph88%30.01 "Hg10 mi
12:00 AM61 °FClear.10 mph83%30.01 "Hg10 mi
11:30 PM
Sun, May 1
63 °FClear.9 mph77%29.98 "Hg10 mi
11:00 PM63 °FClear.13 mph77%29.98 "Hg10 mi
10:30 PM63 °FClear.12 mph77%29.98 "Hg10 mi
10:00 PM63 °FClear.9 mph77%29.98 "Hg10 mi
9:30 PM64 °FClear.9 mph78%29.98 "Hg10 mi
9:00 PM64 °FClear.15 mph78%29.95 "Hg10 mi
8:30 PM66 °FClear.13 mph78%29.92 "Hg10 mi
8:00 PM66 °FClear.9 mph83%29.92 "Hg10 mi
7:30 PM64 °FClear.7 mph88%29.89 "Hg10 mi
7:00 PM64 °FClear.3 mph88%29.89 "Hg10 mi
6:30 PM64 °FPassing clouds.7 mph88%29.86 "HgN/A
6:00 PM66 °FSunny.10 mph78%29.86 "Hg10 mi
Weather by CustomWeather, © 2016

See weather overviewHow to use our weather pages